TimeCDT,TemperatureF,Dew PointF,Humidity,Sea Level PressureIn,VisibilityMPH,Wind Direction,Wind SpeedMPH,Gust SpeedMPH,PrecipitationIn,Events,Conditions,WindDirDegrees,DateUTC
12:15 AM,64.4,64.2,99,29.76,3.0,WNW,6.9,-,0.14,Rain-Thunderstorm,Heavy Thunderstorms and Rain,300,2013-04-11 05:15:00
12:35 AM,64.4,63.9,98,29.76,5.0,WSW,6.9,-,0.25,Rain-Thunderstorm,Heavy Thunderstorms and Rain,250,2013-04-11 05:35:00
12:55 AM,64.4,64.0,99,29.76,7.0,West,4.6,-,0.30,Rain-Thunderstorm,Rain,260,2013-04-11 05:55:00
1:15 AM,64.4,64.4,100,29.73,4.0,Calm,Calm,-,0.06,Rain,Heavy Rain,0,2013-04-11 06:15:00
1:35 AM,64.4,64.4,100,29.73,2.5,Calm,Calm,-,0.15,Rain,Heavy Rain,0,2013-04-11 06:35:00
1:55 AM,64.0,64.0,100,29.70,3.0,East,4.6,-,0.25,Rain,Heavy Rain,80,2013-04-11 06:55:00
2:15 AM,64.4,64.4,100,29.70,3.0,Calm,Calm,-,0.08,Rain-Thunderstorm,Thunderstorms and Rain,0,2013-04-11 07:15:00
2:35 AM,64.4,64.4,100,29.69,10.0,Calm,Calm,-,0.12,Rain,Light Rain,0,2013-04-11 07:35:00
2:55 AM,64.4,64.4,100,29.65,5.0,SE,10.4,-,0.16,Rain,Rain,130,2013-04-11 07:55:00
3:15 AM,64.6,64.6,100,29.60,10.0,SE,13.8,21.9,0.02,Rain,Light Rain,130,2013-04-11 08:15:00
3:35 AM,66.2,66.2,100,29.63,10.0,SSE,11.5,26.5,0.02,Rain,Light Rain,160,2013-04-11 08:35:00
3:55 AM,67.1,65.8,96,29.64,10.0,South,10.4,21.9,0.02,,Overcast,180,2013-04-11 08:55:00
4:15 AM,67.1,65.8,96,29.64,10.0,SSE,10.4,20.7,N/A,,Overcast,160,2013-04-11 09:15:00
4:35 AM,66.7,65.3,95,29.64,10.0,South,10.4,17.3,N/A,,Mostly Cloudy,180,2013-04-11 09:35:00
4:55 AM,66.4,64.4,93,29.66,10.0,South,10.4,-,N/A,,Scattered Clouds,190,2013-04-11 09:55:00
5:15 AM,66.7,64.4,92,29.65,10.0,SSW,11.5,-,N/A,,Mostly Cloudy,200,2013-04-11 10:15:00
5:35 AM,66.6,63.5,90,29.66,10.0,SSW,12.7,17.3,N/A,,Overcast,200,2013-04-11 10:35:00
5:55 AM,65.8,63.3,92,29.66,10.0,SW,15.0,21.9,N/A,,Overcast,220,2013-04-11 10:55:00
6:15 AM,64.4,62.6,94,29.65,10.0,SSW,6.9,17.3,N/A,,Overcast,210,2013-04-11 11:15:00
6:35 AM,63.5,61.5,93,29.68,10.0,SSW,12.7,18.4,N/A,,Overcast,210,2013-04-11 11:35:00
6:55 AM,62.6,61.0,94,29.68,10.0,SW,9.2,-,N/A,,Overcast,220,2013-04-11 11:55:00
7:15 AM,61.7,60.4,96,29.68,10.0,SW,6.9,-,N/A,,Overcast,220,2013-04-11 12:15:00
7:35 AM,61.2,60.1,96,29.69,10.0,SW,5.8,-,N/A,,Overcast,230,2013-04-11 12:35:00
7:55 AM,60.8,60.1,97,29.70,10.0,SSW,5.8,-,N/A,,Overcast,210,2013-04-11 12:55:00
8:15 AM,59.4,59.2,99,29.69,10.0,WSW,8.1,-,N/A,,Overcast,250,2013-04-11 13:15:00
8:35 AM,58.6,58.6,100,29.70,7.0,WSW,5.8,-,N/A,,Overcast,250,2013-04-11 13:35:00
8:55 AM,58.1,58.1,100,29.70,4.0,WSW,4.6,-,N/A,,Overcast,240,2013-04-11 13:55:00
9:15 AM,58.1,58.1,100,29.72,10.0,SW,9.2,-,N/A,,Overcast,230,2013-04-11 14:15:00
9:35 AM,57.6,57.4,99,29.73,7.0,SW,5.8,16.1,N/A,Rain,Rain,230,2013-04-11 14:35:00
9:55 AM,57.0,57.0,100,29.73,7.0,SW,5.8,-,0.01,Rain,Rain,220,2013-04-11 14:55:00
10:15 AM,56.3,56.3,100,29.72,10.0,SW,6.9,-,N/A,,Drizzle,230,2013-04-11 15:15:00
10:35 AM,55.9,55.6,99,29.72,10.0,SSW,5.8,-,N/A,Rain,Light Rain,210,2013-04-11 15:35:00
10:55 AM,55.6,55.4,99,29.73,10.0,SW,8.1,-,0.01,Rain,Rain,230,2013-04-11 15:55:00
11:15 AM,54.9,54.9,100,29.69,7.0,Calm,Calm,-,0.02,Rain,Rain,0,2013-04-11 16:15:00
11:35 AM,54.9,54.9,100,29.70,10.0,SW,4.6,-,0.04,Rain,Rain,230,2013-04-11 16:35:00
11:55 AM,54.5,54.5,100,29.73,10.0,WSW,9.2,-,0.05,Rain,Light Rain,250,2013-04-11 16:55:00
12:15 PM,53.6,53.6,100,29.72,7.0,SW,6.9,-,0.01,Rain,Rain,220,2013-04-11 17:15:00
12:35 PM,53.6,53.6,100,29.72,7.0,WSW,8.1,-,0.04,Rain,Rain,240,2013-04-11 17:35:00
12:55 PM,53.6,53.6,100,29.71,7.0,WSW,6.9,-,0.06,Rain,Rain,240,2013-04-11 17:55:00
1:15 PM,53.1,53.1,100,29.70,5.0,SW,6.9,-,0.02,Rain,Rain,230,2013-04-11 18:15:00
1:35 PM,53.1,52.9,99,29.70,10.0,WSW,8.1,-,0.02,Rain,Rain,240,2013-04-11 18:35:00
1:55 PM,52.7,52.2,98,29.69,10.0,WSW,9.2,-,0.03,Rain,Light Rain,240,2013-04-11 18:55:00
2:15 PM,52.7,52.2,98,29.70,10.0,WSW,5.8,-,N/A,Rain,Rain,240,2013-04-11 19:15:00
2:35 PM,52.3,52.0,99,29.68,10.0,Calm,Calm,-,N/A,Rain,Light Rain,0,2013-04-11 19:35:00
2:55 PM,51.6,51.3,99,29.68,5.0,West,9.2,-,0.01,,Overcast,260,2013-04-11 19:55:00
3:15 PM,51.1,50.9,99,29.66,1.5,Calm,Calm,-,N/A,,Overcast,0,2013-04-11 20:15:00
3:35 PM,51.6,51.4,99,29.67,10.0,West,10.4,-,N/A,,Overcast,260,2013-04-11 20:35:00
3:55 PM,51.8,51.6,99,29.66,10.0,West,4.6,-,N/A,,Overcast,260,2013-04-11 20:55:00
4:15 PM,52.2,51.3,97,29.66,10.0,West,5.8,-,N/A,,Overcast,270,2013-04-11 21:15:00
4:35 PM,51.8,50.7,96,29.65,10.0,WSW,4.6,-,N/A,,Overcast,250,2013-04-11 21:35:00
4:55 PM,52.0,50.7,95,29.63,10.0,Calm,Calm,-,N/A,,Overcast,0,2013-04-11 21:55:00
5:15 PM,52.2,50.9,95,29.65,10.0,West,5.8,-,N/A,,Overcast,280,2013-04-11 22:15:00
5:35 PM,52.2,50.9,95,29.65,10.0,WSW,3.5,-,N/A,,Overcast,250,2013-04-11 22:35:00
5:55 PM,52.7,51.1,94,29.67,10.0,WSW,4.6,-,N/A,,Overcast,250,2013-04-11 22:55:00
6:15 PM,52.7,50.5,92,29.68,10.0,WSW,8.1,-,N/A,,Overcast,250,2013-04-11 23:15:00
6:35 PM,52.9,50.0,90,29.67,10.0,West,6.9,-,N/A,,Overcast,260,2013-04-11 23:35:00
6:55 PM,52.7,49.3,88,29.65,10.0,West,6.9,-,N/A,,Overcast,270,2013-04-11 23:55:00
7:15 PM,52.3,49.3,89,29.65,10.0,WSW,8.1,-,N/A,,Overcast,250,2013-04-12 00:15:00
7:35 PM,51.8,49.1,90,29.67,10.0,WSW,8.1,-,N/A,,Overcast,250,2013-04-12 00:35:00
7:55 PM,51.4,48.6,90,29.67,10.0,West,6.9,-,N/A,,Mostly Cloudy,270,2013-04-12 00:55:00
8:15 PM,51.3,48.2,89,29.67,10.0,West,5.8,-,N/A,,Overcast,280,2013-04-12 01:15:00
8:35 PM,51.4,48.0,88,29.69,10.0,WSW,4.6,-,N/A,,Overcast,250,2013-04-12 01:35:00
8:55 PM,51.1,47.7,88,29.70,10.0,West,4.6,-,N/A,,Overcast,260,2013-04-12 01:55:00
9:15 PM,51.3,46.8,85,29.71,10.0,WNW,9.2,-,N/A,,Overcast,300,2013-04-12 02:15:00
9:35 PM,50.9,45.5,82,29.70,10.0,WNW,10.4,-,N/A,,Overcast,300,2013-04-12 02:35:00
9:55 PM,50.2,43.7,78,29.71,10.0,NW,8.1,-,N/A,,Overcast,310,2013-04-12 02:55:00
10:15 PM,48.7,41.7,77,29.73,10.0,NW,8.1,-,N/A,,Scattered Clouds,310,2013-04-12 03:15:00
10:35 PM,48.2,40.3,74,29.73,10.0,WNW,9.2,-,N/A,,Scattered Clouds,300,2013-04-12 03:35:00
10:55 PM,47.8,38.5,70,29.75,10.0,WNW,13.8,18.4,N/A,,Mostly Cloudy,300,2013-04-12 03:55:00
11:15 PM,46.4,36.1,67,29.76,10.0,WNW,11.5,18.4,N/A,,Overcast,300,2013-04-12 04:15:00
11:35 PM,45.1,35.4,69,29.77,10.0,WNW,11.5,-,N/A,,Mostly Cloudy,300,2013-04-12 04:35:00
11:55 PM,44.4,35.1,70,29.77,10.0,WNW,10.4,16.1,N/A,,Scattered Clouds,300,2013-04-12 04:55:00